CFG2VT EDDM-EDDF

Flight info

Callsign CFG2VT
Flight time 0h 34m
Altitude 24000
Route GIVMI1N GIVMI Y101 ERNAS T161 DEBHI DEBHI1B
Aircraft A20N/M-SBDE3FGHIJ1J4J7LORVWXYZ/SB2D1G1

Departure

Time 2026-05-06 06:01
Airport Munich Airport (EDDM)

Arrival

Time 2026-05-06 06:36
Airport Frankfurt Main Airport (EDDF)
Time Latitude Longitude Altitude Speed Heading
2026-05-06 05:22 48.35088 11.78356 1479 ft 0 kts 84°
2026-05-06 05:48 48.35087 11.78345 1479 ft 2 kts 84°
2026-05-06 05:49 48.35085 11.78322 1479 ft 2 kts 84°
2026-05-06 05:49 48.35084 11.78300 1479 ft 2 kts 84°
2026-05-06 05:49 48.35082 11.78277 1479 ft 2 kts 84°
2026-05-06 05:49 48.35081 11.78263 1479 ft 2 kts 85°
2026-05-06 05:50 48.35074 11.78247 1479 ft 2 kts 22°
2026-05-06 05:50 48.35066 11.78244 1479 ft 0 kts 349°
2026-05-06 05:50 48.35060 11.78246 1479 ft 0 kts 353°
2026-05-06 05:52 48.35061 11.78246 1479 ft 0 kts 353°
2026-05-06 05:53 48.35083 11.78243 1479 ft 8 kts 354°
2026-05-06 05:53 48.35166 11.78227 1479 ft 12 kts 349°
2026-05-06 05:53 48.35201 11.78119 1479 ft 13 kts 264°
2026-05-06 05:53 48.35190 11.77979 1479 ft 14 kts 262°
2026-05-06 05:54 48.35218 11.77844 1479 ft 15 kts 344°
2026-05-06 05:54 48.35337 11.77821 1478 ft 19 kts 353°
2026-05-06 05:54 48.35481 11.77797 1477 ft 20 kts 354°
2026-05-06 05:54 48.35623 11.77778 1476 ft 20 kts 356°
2026-05-06 05:55 48.35750 11.77758 1475 ft 17 kts 17°
2026-05-06 05:55 48.35827 11.77861 1474 ft 15 kts
2026-05-06 05:55 48.35939 11.77845 1474 ft 16 kts
2026-05-06 05:55 48.35992 11.78002 1473 ft 23 kts 83°
2026-05-06 05:56 48.36013 11.78273 1472 ft 26 kts 84°
2026-05-06 05:56 48.36033 11.78540 1472 ft 25 kts 84°
2026-05-06 05:56 48.36053 11.78798 1471 ft 24 kts 83°
2026-05-06 05:56 48.36072 11.79051 1470 ft 24 kts 84°
2026-05-06 05:57 48.36090 11.79299 1468 ft 23 kts 84°
2026-05-06 05:57 48.36100 11.79420 1467 ft 4 kts 83°
2026-05-06 05:57 48.36148 11.79467 1466 ft 12 kts 360°
2026-05-06 05:57 48.36219 11.79542 1466 ft 15 kts 79°
2026-05-06 05:58 48.36233 11.79714 1465 ft 17 kts 83°
2026-05-06 05:58 48.36246 11.79896 1464 ft 18 kts 84°
2026-05-06 05:58 48.36259 11.80092 1463 ft 19 kts 84°
2026-05-06 05:58 48.36276 11.80292 1462 ft 19 kts 83°
2026-05-06 05:59 48.36292 11.80497 1460 ft 20 kts 83°
2026-05-06 05:59 48.36307 11.80708 1459 ft 20 kts 83°
2026-05-06 05:59 48.36324 11.80922 1458 ft 20 kts 83°
2026-05-06 05:59 48.36340 11.81131 1456 ft 19 kts 83°
2026-05-06 06:00 48.36420 11.81178 1456 ft 16 kts 302°
2026-05-06 06:00 48.36467 11.81020 1457 ft 16 kts 294°
2026-05-06 06:00 48.36517 11.80844 1457 ft 20 kts 294°
2026-05-06 06:00 48.36575 11.80641 1458 ft 25 kts 268°
2026-05-06 06:01 48.36527 11.80007 1462 ft 101 kts 264°
2026-05-06 06:01 48.36419 11.78586 1501 ft 164 kts 264°
2026-05-06 06:01 48.36308 11.76898 2198 ft 165 kts 265°
2026-05-06 06:01 48.36198 11.75179 2967 ft 169 kts 265°
2026-05-06 06:02 48.36068 11.73357 3536 ft 185 kts 265°
2026-05-06 06:02 48.35914 11.71348 4124 ft 201 kts 264°
2026-05-06 06:02 48.35766 11.69220 4749 ft 216 kts 269°
2026-05-06 06:02 48.36101 11.66924 5321 ft 234 kts 296°
2026-05-06 06:03 48.36953 11.64707 5847 ft 258 kts 302°
2026-05-06 06:03 48.37942 11.62369 6498 ft 277 kts 302°
2026-05-06 06:03 48.38991 11.59894 7355 ft 287 kts 301°
2026-05-06 06:03 48.40045 11.57358 8364 ft 290 kts 300°
2026-05-06 06:04 48.41095 11.54801 9355 ft 293 kts 299°
2026-05-06 06:04 48.42160 11.52187 10350 ft 296 kts 299°
2026-05-06 06:04 48.43228 11.49547 11272 ft 300 kts 298°
2026-05-06 06:04 48.44311 11.46870 12193 ft 304 kts 298°
2026-05-06 06:05 48.45569 11.44317 13112 ft 311 kts 315°
2026-05-06 06:05 48.47447 11.42654 13900 ft 324 kts 340°
2026-05-06 06:05 48.49719 11.41915 14450 ft 342 kts 348°
2026-05-06 06:05 48.52080 11.41334 15075 ft 353 kts 349°
2026-05-06 06:06 48.54523 11.40733 15890 ft 358 kts 348°
2026-05-06 06:06 48.56966 11.40104 16717 ft 361 kts 348°
2026-05-06 06:06 48.59450 11.39440 17506 ft 365 kts 347°
2026-05-06 06:06 48.61927 11.38763 18251 ft 369 kts 347°
2026-05-06 06:07 48.64470 11.38063 19023 ft 372 kts 347°
2026-05-06 06:07 48.67017 11.37359 19756 ft 376 kts 346°
2026-05-06 06:07 48.69540 11.36334 20481 ft 376 kts 336°
2026-05-06 06:07 48.71900 11.34712 21214 ft 374 kts 326°
2026-05-06 06:08 48.74086 11.32631 21950 ft 375 kts 321°
2026-05-06 06:08 48.76235 11.30414 22674 ft 378 kts 320°
2026-05-06 06:08 48.78411 11.28159 23355 ft 381 kts 320°
2026-05-06 06:08 48.80586 11.25923 23740 ft 383 kts 320°
2026-05-06 06:09 48.82824 11.23597 23808 ft 392 kts 319°
2026-05-06 06:09 48.84993 11.21094 23813 ft 389 kts 315°
2026-05-06 06:09 48.86980 11.18514 23804 ft 371 kts 312°
2026-05-06 06:09 48.88861 11.15916 23805 ft 364 kts 311°
2026-05-06 06:10 48.90722 11.13303 23803 ft 364 kts 311°
2026-05-06 06:10 48.92580 11.10694 23805 ft 364 kts 311°
2026-05-06 06:10 48.94450 11.08074 23809 ft 364 kts 312°
2026-05-06 06:10 48.96287 11.05503 23807 ft 364 kts 312°
2026-05-06 06:11 48.98157 11.02887 23800 ft 364 kts 312°
2026-05-06 06:11 49.00004 11.00301 23789 ft 363 kts 313°
2026-05-06 06:11 49.01876 10.97677 23789 ft 363 kts 313°
2026-05-06 06:11 49.03729 10.95070 23786 ft 363 kts 313°
2026-05-06 06:12 49.05568 10.92484 23784 ft 363 kts 313°
2026-05-06 06:12 49.07432 10.89859 23787 ft 363 kts 313°
2026-05-06 06:12 49.09281 10.87251 23790 ft 363 kts 313°
2026-05-06 06:12 49.11121 10.84653 23785 ft 364 kts 313°
2026-05-06 06:13 49.12972 10.82039 23795 ft 364 kts 313°
2026-05-06 06:13 49.14831 10.79407 23793 ft 363 kts 313°
2026-05-06 06:13 49.16666 10.76805 23801 ft 364 kts 313°
2026-05-06 06:13 49.18533 10.74151 23801 ft 364 kts 313°
2026-05-06 06:14 49.20335 10.71493 23800 ft 363 kts 311°
2026-05-06 06:14 49.22115 10.68720 23800 ft 364 kts 310°
2026-05-06 06:14 49.23869 10.65957 23796 ft 364 kts 310°
2026-05-06 06:14 49.25623 10.63184 23800 ft 364 kts 310°
2026-05-06 06:15 49.27398 10.60379 23797 ft 364 kts 310°
2026-05-06 06:15 49.29141 10.57627 23801 ft 363 kts 310°
2026-05-06 06:15 49.30906 10.54833 23797 ft 364 kts 310°
2026-05-06 06:15 49.32665 10.52051 23800 ft 364 kts 310°
2026-05-06 06:16 49.34414 10.49271 23797 ft 364 kts 309°
2026-05-06 06:16 49.36093 10.46345 23801 ft 362 kts 306°
2026-05-06 06:16 49.37618 10.43303 23795 ft 361 kts 302°
2026-05-06 06:16 49.39064 10.40175 23798 ft 361 kts 302°
2026-05-06 06:17 49.40507 10.37006 23802 ft 361 kts 302°
2026-05-06 06:17 49.41943 10.33846 23797 ft 362 kts 301°
2026-05-06 06:17 49.43374 10.30699 23791 ft 362 kts 301°
2026-05-06 06:17 49.44821 10.27515 23799 ft 362 kts 301°
2026-05-06 06:18 49.46249 10.24369 23795 ft 362 kts 301°
2026-05-06 06:18 49.47676 10.21224 23666 ft 363 kts 301°
2026-05-06 06:18 49.49119 10.18039 23398 ft 363 kts 301°
2026-05-06 06:18 49.50566 10.14842 23108 ft 364 kts 301°
2026-05-06 06:19 49.52010 10.11649 22520 ft 367 kts 301°
2026-05-06 06:19 49.53461 10.08437 21874 ft 368 kts 302°
2026-05-06 06:19 49.54924 10.05198 21388 ft 369 kts 302°
2026-05-06 06:19 49.56382 10.01964 20947 ft 371 kts 302°
2026-05-06 06:20 49.57855 9.98696 20538 ft 372 kts 302°
2026-05-06 06:20 49.59325 9.95430 20167 ft 373 kts 302°
2026-05-06 06:20 49.60808 9.92133 19801 ft 371 kts 302°
2026-05-06 06:20 49.62253 9.88918 19333 ft 367 kts 302°
2026-05-06 06:21 49.63703 9.85682 18783 ft 365 kts 302°
2026-05-06 06:21 49.65131 9.82492 18251 ft 363 kts 302°
2026-05-06 06:21 49.66560 9.79294 17674 ft 362 kts 302°
2026-05-06 06:21 49.67965 9.76147 17241 ft 358 kts 302°
2026-05-06 06:22 49.69382 9.72965 16631 ft 358 kts 302°
2026-05-06 06:22 49.70794 9.69789 16003 ft 359 kts 302°
2026-05-06 06:22 49.72192 9.66641 15385 ft 360 kts 302°
2026-05-06 06:22 49.73597 9.63479 14761 ft 360 kts 302°
2026-05-06 06:23 49.75017 9.60281 14130 ft 360 kts 302°
2026-05-06 06:23 49.76416 9.57127 13515 ft 359 kts 302°
2026-05-06 06:23 49.77822 9.53953 12897 ft 359 kts 302°
2026-05-06 06:23 49.79229 9.50770 12273 ft 358 kts 301°
2026-05-06 06:24 49.80616 9.47629 11842 ft 351 kts 301°
2026-05-06 06:24 49.81975 9.44545 11467 ft 343 kts 301°
2026-05-06 06:24 49.83301 9.41535 11091 ft 336 kts 301°
2026-05-06 06:24 49.84596 9.38591 10725 ft 328 kts 301°
2026-05-06 06:25 49.85898 9.35782 10574 ft 317 kts 307°
2026-05-06 06:25 49.87458 9.33466 10447 ft 307 kts 318°
2026-05-06 06:25 49.90788 9.29724 10144 ft 287 kts 320°
2026-05-06 06:26 49.92413 9.27936 9753 ft 286 kts 320°
2026-05-06 06:26 49.94041 9.26132 9357 ft 285 kts 320°
2026-05-06 06:26 49.95637 9.24355 8993 ft 283 kts 320°
2026-05-06 06:26 49.97232 9.22574 8615 ft 281 kts 320°
2026-05-06 06:27 49.98809 9.20810 8233 ft 279 kts 320°
2026-05-06 06:27 50.00364 9.19066 7853 ft 278 kts 320°
2026-05-06 06:27 50.01942 9.17295 7474 ft 276 kts 320°
2026-05-06 06:27 50.03481 9.15567 7109 ft 274 kts 320°
2026-05-06 06:28 50.05029 9.13825 6741 ft 272 kts 320°
2026-05-06 06:28 50.06553 9.12111 6375 ft 270 kts 320°
2026-05-06 06:28 50.08065 9.10408 6014 ft 268 kts 320°
2026-05-06 06:28 50.09564 9.08720 5642 ft 266 kts 319°
2026-05-06 06:29 50.10803 9.06727 5354 ft 253 kts 293°
2026-05-06 06:29 50.11238 9.04160 5185 ft 238 kts 276°
2026-05-06 06:29 50.11481 9.01650 5019 ft 230 kts 276°
2026-05-06 06:29 50.11734 8.99248 4857 ft 222 kts 277°
2026-05-06 06:30 50.11989 8.96923 4701 ft 214 kts 277°
2026-05-06 06:30 50.12205 8.94636 4536 ft 206 kts 269°
2026-05-06 06:30 50.12027 8.92470 4303 ft 201 kts 252°
2026-05-06 06:30 50.11612 8.90412 4055 ft 198 kts 250°
2026-05-06 06:31 50.11162 8.88406 3996 ft 199 kts 250°
2026-05-06 06:31 50.10683 8.86362 3975 ft 200 kts 249°
2026-05-06 06:31 50.10194 8.84330 3786 ft 199 kts 249°
2026-05-06 06:31 50.09712 8.82338 3517 ft 198 kts 249°
2026-05-06 06:32 50.09222 8.80326 3250 ft 197 kts 249°
2026-05-06 06:32 50.08743 8.78354 2987 ft 194 kts 249°
2026-05-06 06:32 50.08277 8.76428 2766 ft 185 kts 249°
2026-05-06 06:32 50.07842 8.74625 2559 ft 171 kts 249°
2026-05-06 06:33 50.07440 8.72956 2292 ft 159 kts 248°
2026-05-06 06:33 50.07062 8.71387 2084 ft 150 kts 248°
2026-05-06 06:33 50.06710 8.69924 1872 ft 144 kts 248°
2026-05-06 06:33 50.06356 8.68456 1682 ft 143 kts 248°
2026-05-06 06:34 50.06009 8.67012 1499 ft 143 kts 248°
2026-05-06 06:34 50.05670 8.65597 1303 ft 135 kts 248°
2026-05-06 06:34 50.05343 8.64235 1134 ft 134 kts 248°
2026-05-06 06:34 50.05016 8.62871 961 ft 134 kts 248°
2026-05-06 06:35 50.04696 8.61527 783 ft 134 kts 248°
2026-05-06 06:35 50.04372 8.60176 580 ft 133 kts 248°
2026-05-06 06:35 50.04048 8.58827 405 ft 132 kts 248°
2026-05-06 06:35 50.03738 8.57535 358 ft 115 kts 250°
2026-05-06 06:36 50.03523 8.56632 351 ft 66 kts 249°
2026-05-06 06:36 50.03432 8.56132 347 ft 36 kts 275°
2026-05-06 06:36 50.03468 8.55784 346 ft 30 kts 280°
2026-05-06 06:36 50.03489 8.55491 345 ft 25 kts 263°
2026-05-06 06:37 50.03441 8.55255 344 ft 21 kts 249°
2026-05-06 06:37 50.03390 8.55051 343 ft 19 kts 252°
2026-05-06 06:37 50.03343 8.54850 342 ft 20 kts 249°
2026-05-06 06:37 50.03293 8.54646 340 ft 18 kts 249°
2026-05-06 06:38 50.03304 8.54487 340 ft 16 kts 331°
2026-05-06 06:38 50.03412 8.54422 341 ft 16 kts 339°
2026-05-06 06:38 50.03519 8.54360 341 ft 16 kts 340°
2026-05-06 06:38 50.03617 8.54308 342 ft 13 kts 353°
2026-05-06 06:39 50.03678 8.54398 343 ft 13 kts 70°
2026-05-06 06:39 50.03710 8.54539 343 ft 14 kts 70°
2026-05-06 06:39 50.03744 8.54679 344 ft 13 kts 69°
2026-05-06 06:39 50.03779 8.54823 345 ft 14 kts 70°
2026-05-06 06:40 50.03812 8.54962 346 ft 13 kts 70°
2026-05-06 06:40 50.03843 8.55096 347 ft 12 kts 70°
2026-05-06 06:40 50.03873 8.55221 347 ft 12 kts 70°
2026-05-06 06:40 50.03901 8.55338 348 ft 11 kts 70°
2026-05-06 06:41 50.03928 8.55451 349 ft 11 kts 70°
2026-05-06 06:41 50.03956 8.55565 349 ft 11 kts 68°
2026-05-06 06:41 50.03983 8.55676 350 ft 11 kts 70°
2026-05-06 06:41 50.04010 8.55789 350 ft 11 kts 70°
2026-05-06 06:42 50.04037 8.55905 351 ft 12 kts 70°
2026-05-06 06:42 50.04105 8.55961 352 ft 12 kts 345°
2026-05-06 06:42 50.04190 8.55910 352 ft 12 kts 325°
2026-05-06 06:42 50.04203 8.55793 352 ft 11 kts 249°
2026-05-06 06:43 50.04174 8.55668 351 ft 12 kts 251°
2026-05-06 06:43 50.04143 8.55540 350 ft 11 kts 246°
2026-05-06 06:43 50.04100 8.55514 350 ft 6 kts 162°
2026-05-06 06:43 50.04062 8.55535 350 ft 4 kts 160°
2026-05-06 06:44 50.04044 8.55545 350 ft 0 kts 161°